Weather History for Norfolk, NE

Change the Weather History Date:

Sunday, November 14, 2010

  Actual Average Record
Temperature  
Mean Temperature 37 °F 37 °F  
Max Temperature 47 °F 48 °F 72 °F (2001)
Min Temperature 27 °F 26 °F -12 °F (1959)
Degree Days  
Heating Degree Days 28 28  
Month to date heating degree days 274 339  
Since 1 July heating degree days 703 924  
Cooling Degree Days 0 0  
Month to date cooling degree days 0 0  
Year to date cooling degree days 985 915  
Moisture  
Dew Point 26 °F    
Average Humidity 64    
Maximum Humidity 85    
Minimum Humidity 42    
Precipitation  
Precipitation 0.00 in 0.05 in 1.16 in (1926)
Month to date precipitation 0.17 0.68  
Year to date precipitation 28.70 25.97  
Snow  
Snow 0.00 in 0.10 in - ()
Month to date snowfall 0.0 1.3  
Since 1 July snowfall T 2.1  
Snow Depth 0.00 in    
Sea Level Pressure  
Sea Level Pressure 29.90 in    
Wind  
Wind Speed 9 mph (WSW)    
Max Wind Speed 18 mph    
Max Gust Speed 22 mph    
Visibility 10 miles    
Events      
T = Trace of Precipitation, MM = Missing Value Source: NWS Daily Summary

Daily Weather History Graph

Daily Weather History Graph

Search for Another Location

Airport:

Trip Planner

Search our weather history database for the weather conditions in past years. The results will help you decide how hot, cold, wet, or windy it might be!

Date:

Astronomy

Nov. 14, 2010 Rise Set
Actual Time 7:18 AM CST 5:09 PM CST
Civil Twilight 6:48 AM CST 5:39 PM CST
Nautical Twilight 6:14 AM CST 6:13 PM CST
Astronomical Twilight 5:41 AM CST 6:46 PM CST
Moon 1:34 PM CST (11/14) 12:21 AM CST (11/14)
Length of Visible Light 10h 51m
Length of Day
9h 51m
First Quarter, 60% of the Moon is Illuminated
Nov 14
First Quarter
Nov 21
Full
Nov 28
Last Quarter
Dec 5
New
Dec 13
First Quarter

Hourly Weather History & Observations

Time (CST) Temp. Windchill Dew Point Humidity Pressure Visibility Wind Dir Wind Speed Gust Speed Precip Events Conditions
12:56 AM 32.0 °F 23.6 °F 27.0 °F 82% 30.02 in 10.0 mi West 10.4 mph - N/A   Clear
1:56 AM 30.0 °F 21.7 °F 26.1 °F 85% 30.01 in 10.0 mi West 9.2 mph - N/A   Clear
2:56 AM 30.9 °F 22.8 °F 26.1 °F 82% 30.01 in 10.0 mi West 9.2 mph - N/A   Partly Cloudy
3:56 AM 30.9 °F 23.5 °F 26.1 °F 82% 30.01 in 10.0 mi West 8.1 mph - N/A   Mostly Cloudy
4:56 AM 30.9 °F 22.2 °F 27.0 °F 85% 30.00 in 10.0 mi West 10.4 mph - N/A   Mostly Cloudy
5:56 AM 32.0 °F 26.4 °F 27.0 °F 82% 29.99 in 10.0 mi West 5.8 mph - N/A   Overcast
6:56 AM 30.9 °F 23.5 °F 26.1 °F 82% 29.99 in 10.0 mi West 8.1 mph - N/A   Mostly Cloudy
7:56 AM 33.1 °F 26.1 °F 26.1 °F 75% 29.99 in 10.0 mi WSW 8.1 mph - N/A   Mostly Cloudy
8:56 AM 35.1 °F 27.4 °F 27.0 °F 72% 29.98 in 10.0 mi West 10.4 mph - N/A   Overcast
9:56 AM 37.0 °F 30.4 °F 28.0 °F 70% 29.97 in 10.0 mi West 9.2 mph - N/A   Mostly Cloudy
10:56 AM 39.0 °F 30.6 °F 28.0 °F 65% 29.95 in 10.0 mi West 15.0 mph - N/A   Mostly Cloudy
11:56 AM 42.1 °F 35.2 °F 27.0 °F 55% 29.92 in 10.0 mi WNW 12.7 mph - N/A   Partly Cloudy
12:56 PM 43.0 °F 36.4 °F 27.0 °F 53% 29.89 in 10.0 mi WNW 12.7 mph - N/A   Partly Cloudy
1:56 PM 45.0 °F 40.1 °F 26.1 °F 48% 29.86 in 10.0 mi West 9.2 mph - N/A   Clear
2:56 PM 46.0 °F 39.9 °F 25.0 °F 44% 29.83 in 10.0 mi West 13.8 mph - N/A   Clear
3:56 PM 46.0 °F 41.9 °F 24.1 °F 42% 29.82 in 10.0 mi WSW 8.1 mph - N/A   Clear
4:56 PM 39.9 °F 35.1 °F 24.1 °F 53% 29.82 in 10.0 mi SW 6.9 mph - N/A   Clear
5:56 PM 35.1 °F 29.3 °F 24.1 °F 64% 29.81 in 10.0 mi SSW 6.9 mph - N/A   Clear
6:56 PM 34.0 °F 27.2 °F 25.0 °F 70% 29.81 in 10.0 mi SSW 8.1 mph - N/A   Clear
7:56 PM 32.0 °F 24.2 °F 24.1 °F 73% 29.80 in 10.0 mi SSW 9.2 mph - N/A   Clear
8:56 PM 30.9 °F 23.5 °F 24.1 °F 76% 29.79 in 10.0 mi SSW 8.1 mph - N/A   Clear
9:56 PM 30.9 °F 27.5 °F 23.0 °F 72% 29.78 in 10.0 mi SW 3.5 mph - N/A   Clear
10:56 PM 30.0 °F 26.5 °F 23.0 °F 75% 29.77 in 10.0 mi SW 3.5 mph - N/A   Clear
11:56 PM 30.0 °F - 23.0 °F 75% 29.77 in 10.0 mi Calm Calm - N/A   Clear